Year,Month,Day,Hour,Minute,Value (Times are PST for temperature in C)
2017,05,25,00,00,10.10
2017,05,25,00,01,10.10
2017,05,25,00,02,10.00
2017,05,25,00,03,9.90
2017,05,25,00,04,9.90
2017,05,25,00,05,9.90
2017,05,25,00,06,9.90
2017,05,25,00,07,9.90
2017,05,25,00,08,9.90
2017,05,25,00,09,9.90
2017,05,25,00,10,9.90
2017,05,25,00,11,9.80
2017,05,25,00,12,9.80
2017,05,25,00,13,9.80
2017,05,25,00,14,9.80
2017,05,25,00,15,9.70
2017,05,25,00,16,9.70
2017,05,25,00,17,9.70
2017,05,25,00,18,9.70
2017,05,25,00,19,9.60
2017,05,25,00,20,9.60
2017,05,25,00,21,9.50
2017,05,25,00,22,9.50
2017,05,25,00,23,9.40
2017,05,25,00,24,9.40
2017,05,25,00,25,9.30
2017,05,25,00,26,9.30
2017,05,25,00,27,9.30
2017,05,25,00,28,9.20
2017,05,25,00,29,9.20
2017,05,25,00,30,9.20
2017,05,25,00,31,9.20
2017,05,25,00,32,9.10
2017,05,25,00,33,9.10
2017,05,25,00,34,9.10
2017,05,25,00,35,9.00
2017,05,25,00,36,9.00
2017,05,25,00,37,9.00
2017,05,25,00,38,9.00
2017,05,25,00,39,9.00
2017,05,25,00,40,8.90
2017,05,25,00,41,8.90
2017,05,25,00,42,8.90
2017,05,25,00,43,8.90
2017,05,25,00,44,8.90
2017,05,25,00,45,8.90
2017,05,25,00,46,8.90
2017,05,25,00,47,8.90
2017,05,25,00,48,8.80
2017,05,25,00,49,8.80
2017,05,25,00,50,8.80
2017,05,25,00,51,8.80
2017,05,25,00,52,8.80
2017,05,25,00,53,8.80
2017,05,25,00,54,8.80
2017,05,25,00,55,8.70
2017,05,25,00,56,8.70
2017,05,25,00,57,8.70
2017,05,25,00,58,8.70
2017,05,25,00,59,8.70
2017,05,25,01,00,8.70
2017,05,25,01,01,8.70
2017,05,25,01,02,8.70
2017,05,25,01,03,8.70
2017,05,25,01,04,8.70
2017,05,25,01,05,8.60
2017,05,25,01,06,8.60
2017,05,25,01,07,8.60
2017,05,25,01,08,8.60
2017,05,25,01,09,8.60
2017,05,25,01,10,8.60
2017,05,25,01,11,8.60
2017,05,25,01,12,8.50
2017,05,25,01,13,8.50
2017,05,25,01,14,8.50
2017,05,25,01,15,8.50
2017,05,25,01,16,8.50
2017,05,25,01,17,8.50
2017,05,25,01,18,8.50
2017,05,25,01,19,8.40
2017,05,25,01,20,8.40
2017,05,25,01,21,8.40
2017,05,25,01,22,8.40
2017,05,25,01,23,8.40
2017,05,25,01,24,8.40
2017,05,25,01,25,8.40
2017,05,25,01,26,8.30
2017,05,25,01,27,8.30
2017,05,25,01,28,8.30
2017,05,25,01,29,8.30
2017,05,25,01,30,8.30
2017,05,25,01,31,8.30
2017,05,25,01,32,8.30
2017,05,25,01,33,8.30
2017,05,25,01,34,8.30
2017,05,25,01,35,8.30
2017,05,25,01,36,8.30
2017,05,25,01,37,8.30
2017,05,25,01,38,8.30
2017,05,25,01,39,8.30
2017,05,25,01,40,8.30
2017,05,25,01,41,8.30
2017,05,25,01,42,8.30
2017,05,25,01,43,8.30
2017,05,25,01,44,8.30
2017,05,25,01,45,8.30
2017,05,25,01,46,8.30
2017,05,25,01,47,8.30
2017,05,25,01,48,8.30
2017,05,25,01,49,8.20
2017,05,25,01,50,8.20
2017,05,25,01,51,8.20
2017,05,25,01,52,8.20
2017,05,25,01,53,8.20
2017,05,25,01,54,8.20
2017,05,25,01,55,8.20
2017,05,25,01,56,8.20
2017,05,25,01,57,8.20
2017,05,25,01,58,8.20
2017,05,25,01,59,8.20
2017,05,25,02,00,8.20
2017,05,25,02,01,8.10
2017,05,25,02,02,8.10
2017,05,25,02,03,8.10
2017,05,25,02,04,8.10
2017,05,25,02,05,8.10
2017,05,25,02,06,8.10
2017,05,25,02,07,8.10
2017,05,25,02,08,8.10
2017,05,25,02,09,8.10
2017,05,25,02,10,8.00
2017,05,25,02,11,8.00
2017,05,25,02,12,8.00
2017,05,25,02,13,8.00
2017,05,25,02,14,8.00
2017,05,25,02,15,8.00
2017,05,25,02,16,8.00
2017,05,25,02,17,8.00
2017,05,25,02,18,7.90
2017,05,25,02,19,7.90
2017,05,25,02,20,7.90
2017,05,25,02,21,7.90
2017,05,25,02,22,7.90
2017,05,25,02,23,7.90
2017,05,25,02,24,7.90
2017,05,25,02,25,7.90
2017,05,25,02,26,7.80
2017,05,25,02,27,7.80
2017,05,25,02,28,7.80
2017,05,25,02,29,7.80
2017,05,25,02,30,7.80
2017,05,25,02,31,7.80
2017,05,25,02,32,7.80
2017,05,25,02,33,7.80
2017,05,25,02,34,7.80
2017,05,25,02,35,7.80
2017,05,25,02,36,7.80
2017,05,25,02,37,7.80
2017,05,25,02,38,7.80
2017,05,25,02,39,7.80
2017,05,25,02,40,7.80
2017,05,25,02,41,7.80
2017,05,25,02,42,7.80
2017,05,25,02,43,7.80
2017,05,25,02,44,7.80
2017,05,25,02,45,7.80
2017,05,25,02,46,7.80
2017,05,25,02,47,7.80
2017,05,25,02,48,7.80
2017,05,25,02,49,7.80
2017,05,25,02,50,7.80
2017,05,25,02,51,7.80
2017,05,25,02,52,7.80
2017,05,25,02,53,7.70
2017,05,25,02,54,7.70
2017,05,25,02,55,7.70
2017,05,25,02,56,7.70
2017,05,25,02,57,7.70
2017,05,25,02,58,7.70
2017,05,25,02,59,7.70
2017,05,25,03,00,7.70
2017,05,25,03,01,7.70
2017,05,25,03,02,7.70
2017,05,25,03,03,7.70
2017,05,25,03,04,7.70
2017,05,25,03,05,7.70
2017,05,25,03,06,7.70
2017,05,25,03,07,7.70
2017,05,25,03,08,7.70
2017,05,25,03,09,7.70
2017,05,25,03,10,7.70
2017,05,25,03,11,7.80
2017,05,25,03,12,7.80
2017,05,25,03,13,7.80
2017,05,25,03,14,7.80
2017,05,25,03,15,7.80
2017,05,25,03,16,7.80
2017,05,25,03,17,7.80
2017,05,25,03,18,7.80
2017,05,25,03,19,7.80
2017,05,25,03,20,7.80
2017,05,25,03,21,7.80
2017,05,25,03,22,7.80
2017,05,25,03,23,7.80
2017,05,25,03,24,7.80
2017,05,25,03,25,7.80
2017,05,25,03,26,7.80
2017,05,25,03,27,7.80
2017,05,25,03,28,7.80
2017,05,25,03,29,7.80
2017,05,25,03,30,7.80
2017,05,25,03,31,7.80
2017,05,25,03,32,7.80
2017,05,25,03,33,7.80
2017,05,25,03,34,7.80
2017,05,25,03,35,7.80
2017,05,25,03,36,7.80
2017,05,25,03,37,7.80
2017,05,25,03,38,7.80
2017,05,25,03,39,7.80
2017,05,25,03,40,7.80
2017,05,25,03,41,7.80
2017,05,25,03,42,7.80
2017,05,25,03,43,7.80
2017,05,25,03,44,7.80
2017,05,25,03,45,7.80
2017,05,25,03,46,7.80
2017,05,25,03,47,7.80
2017,05,25,03,48,7.80
2017,05,25,03,49,7.80
2017,05,25,03,50,7.80
2017,05,25,03,51,7.80
2017,05,25,03,52,7.80
2017,05,25,03,53,7.80
2017,05,25,03,54,7.80
2017,05,25,03,55,7.80
2017,05,25,03,56,7.80
2017,05,25,03,57,7.80
2017,05,25,03,58,7.80
2017,05,25,03,59,7.80
2017,05,25,04,00,7.80
2017,05,25,04,01,7.80
2017,05,25,04,02,7.80
2017,05,25,04,03,7.80
2017,05,25,04,04,7.80
2017,05,25,04,05,7.80
2017,05,25,04,06,7.80
2017,05,25,04,07,7.80
2017,05,25,04,08,7.80
2017,05,25,04,09,7.80
2017,05,25,04,10,7.80
2017,05,25,04,11,7.80
2017,05,25,04,12,7.80
2017,05,25,04,13,7.80
2017,05,25,04,14,7.80
2017,05,25,04,15,7.80
2017,05,25,04,16,7.80
2017,05,25,04,17,7.80
2017,05,25,04,18,7.80
2017,05,25,04,19,7.80
2017,05,25,04,20,7.80
2017,05,25,04,21,7.80
2017,05,25,04,22,7.80
2017,05,25,04,23,7.80
2017,05,25,04,24,7.80
2017,05,25,04,25,7.80
2017,05,25,04,26,7.80
2017,05,25,04,27,7.80
2017,05,25,04,28,7.80
2017,05,25,04,29,7.80
2017,05,25,04,30,7.80
2017,05,25,04,31,7.80
2017,05,25,04,32,7.80
2017,05,25,04,33,7.80
2017,05,25,04,34,7.80
2017,05,25,04,35,7.80
2017,05,25,04,36,7.80
2017,05,25,04,37,7.80
2017,05,25,04,38,7.80
2017,05,25,04,39,7.80
2017,05,25,04,40,7.70
2017,05,25,04,41,7.70
2017,05,25,04,42,7.70
2017,05,25,04,43,7.70
2017,05,25,04,44,7.70
2017,05,25,04,45,7.70
2017,05,25,04,46,7.70
2017,05,25,04,47,7.70
2017,05,25,04,48,7.80
2017,05,25,04,49,7.80
2017,05,25,04,50,7.80
2017,05,25,04,51,7.80
2017,05,25,04,52,7.80
2017,05,25,04,53,7.80
2017,05,25,04,54,7.80
2017,05,25,04,55,7.80
2017,05,25,04,56,7.80
2017,05,25,04,57,7.80
2017,05,25,04,58,7.70
2017,05,25,04,59,7.70
2017,05,25,05,00,7.70
2017,05,25,05,01,7.70
2017,05,25,05,02,7.70
2017,05,25,05,03,7.60
2017,05,25,05,04,7.60
2017,05,25,05,05,7.60
2017,05,25,05,06,7.60
2017,05,25,05,07,7.60
2017,05,25,05,08,7.60
2017,05,25,05,09,7.60
2017,05,25,05,10,7.60
2017,05,25,05,11,7.50
2017,05,25,05,12,7.50
2017,05,25,05,13,7.50
2017,05,25,05,14,7.50
2017,05,25,05,15,7.50
2017,05,25,05,16,7.50
2017,05,25,05,17,7.50
2017,05,25,05,18,7.50
2017,05,25,05,19,7.50
2017,05,25,05,20,7.50
2017,05,25,05,21,7.50
2017,05,25,05,22,7.50
2017,05,25,05,23,7.50
2017,05,25,05,24,7.50
2017,05,25,05,25,7.50
2017,05,25,05,26,7.50
2017,05,25,05,27,7.50
2017,05,25,05,28,7.50
2017,05,25,05,29,7.50
2017,05,25,05,30,7.50
2017,05,25,05,31,7.50
2017,05,25,05,32,7.50
2017,05,25,05,33,7.50
2017,05,25,05,34,7.40
2017,05,25,05,35,7.40
2017,05,25,05,36,7.40
2017,05,25,05,37,7.40
2017,05,25,05,38,7.40
2017,05,25,05,39,7.40
2017,05,25,05,40,7.40
2017,05,25,05,41,7.40
2017,05,25,05,42,7.40
2017,05,25,05,43,7.40
2017,05,25,05,44,7.40
2017,05,25,05,45,7.40
2017,05,25,05,46,7.40
2017,05,25,05,47,7.40
2017,05,25,05,48,7.40
2017,05,25,05,49,7.40
2017,05,25,05,50,7.40
2017,05,25,05,51,7.40
2017,05,25,05,52,7.40
2017,05,25,05,53,7.40
2017,05,25,05,54,7.30
2017,05,25,05,55,7.30
2017,05,25,05,56,7.30
2017,05,25,05,57,7.30
2017,05,25,05,58,7.30
2017,05,25,05,59,7.30
2017,05,25,06,00,7.30
2017,05,25,06,01,7.30
2017,05,25,06,02,7.30
2017,05,25,06,03,7.30
2017,05,25,06,04,7.30
2017,05,25,06,05,7.30
2017,05,25,06,06,7.30
2017,05,25,06,07,7.30
2017,05,25,06,08,7.30
2017,05,25,06,09,7.30
2017,05,25,06,10,7.40
2017,05,25,06,11,7.40
2017,05,25,06,12,7.40
2017,05,25,06,13,7.40
2017,05,25,06,14,7.40
2017,05,25,06,15,7.50
2017,05,25,06,16,7.50
2017,05,25,06,17,7.50
2017,05,25,06,18,7.50
2017,05,25,06,19,7.60
2017,05,25,06,20,7.60
2017,05,25,06,21,7.60
2017,05,25,06,22,7.60
2017,05,25,06,23,7.70
2017,05,25,06,24,7.70
2017,05,25,06,25,7.70
2017,05,25,06,26,7.70
2017,05,25,06,27,7.80
2017,05,25,06,28,7.80
2017,05,25,06,29,7.80
2017,05,25,06,30,7.80
2017,05,25,06,31,7.90
2017,05,25,06,32,8.00
2017,05,25,06,33,8.00
2017,05,25,06,34,8.10
2017,05,25,06,35,8.20
2017,05,25,06,36,8.30
2017,05,25,06,37,8.30
2017,05,25,06,38,8.40
2017,05,25,06,39,8.50
2017,05,25,06,40,8.50
2017,05,25,06,41,8.60
2017,05,25,06,42,8.60
2017,05,25,06,43,8.70
2017,05,25,06,44,8.70
2017,05,25,06,45,8.70
2017,05,25,06,46,8.80
2017,05,25,06,47,8.80
2017,05,25,06,48,8.80
2017,05,25,06,49,8.90
2017,05,25,06,50,8.90
2017,05,25,06,51,9.00
2017,05,25,06,52,9.00
2017,05,25,06,53,9.10
2017,05,25,06,54,9.10
2017,05,25,06,55,9.10
2017,05,25,06,56,9.20
2017,05,25,06,57,9.20
2017,05,25,06,58,9.20
2017,05,25,06,59,9.30
2017,05,25,07,00,9.40
2017,05,25,07,01,9.40
2017,05,25,07,02,9.40
2017,05,25,07,03,9.40
2017,05,25,07,04,9.40
2017,05,25,07,05,9.50
2017,05,25,07,06,9.50
2017,05,25,07,07,9.50
2017,05,25,07,08,9.60
2017,05,25,07,09,9.60
2017,05,25,07,10,9.60
2017,05,25,07,11,9.70
2017,05,25,07,12,9.70
2017,05,25,07,13,9.70
2017,05,25,07,14,9.80
2017,05,25,07,15,9.80
2017,05,25,07,16,9.90
2017,05,25,07,17,9.90
2017,05,25,07,18,10.00
2017,05,25,07,19,10.10
2017,05,25,07,20,10.20
2017,05,25,07,21,10.30
2017,05,25,07,22,10.40
2017,05,25,07,23,10.40
2017,05,25,07,24,10.50
2017,05,25,07,25,10.60
2017,05,25,07,26,10.60
2017,05,25,07,27,10.70
2017,05,25,07,28,10.80
2017,05,25,07,29,10.80
2017,05,25,07,30,10.90
2017,05,25,07,31,10.90
2017,05,25,07,32,10.90
2017,05,25,07,33,10.90
2017,05,25,07,34,10.90
2017,05,25,07,35,10.90
2017,05,25,07,36,10.90
2017,05,25,07,37,11.10
2017,05,25,07,38,11.20
2017,05,25,07,39,11.30
2017,05,25,07,40,11.40
2017,05,25,07,41,11.40
2017,05,25,07,42,11.50
2017,05,25,07,43,11.60
2017,05,25,07,44,11.60
2017,05,25,07,45,11.60
2017,05,25,07,46,11.60
2017,05,25,07,47,11.70
2017,05,25,07,48,11.70
2017,05,25,07,49,11.70
2017,05,25,07,50,11.70
2017,05,25,07,51,11.70
2017,05,25,07,52,11.70
2017,05,25,07,53,11.70
2017,05,25,07,54,11.80
2017,05,25,07,55,11.80
2017,05,25,07,56,11.90
2017,05,25,07,57,11.90
2017,05,25,07,58,12.00
2017,05,25,07,59,12.10
2017,05,25,08,00,12.20
2017,05,25,08,01,12.30
2017,05,25,08,02,12.40
2017,05,25,08,03,12.40
2017,05,25,08,04,12.40
2017,05,25,08,05,12.30
2017,05,25,08,06,12.30
2017,05,25,08,07,12.30
2017,05,25,08,08,12.30
2017,05,25,08,09,12.30
2017,05,25,08,10,12.30
2017,05,25,08,11,12.40
2017,05,25,08,12,12.50
2017,05,25,08,13,12.60
2017,05,25,08,14,12.60
2017,05,25,08,15,12.70
2017,05,25,08,16,12.80
2017,05,25,08,17,12.90
2017,05,25,08,18,13.00
2017,05,25,08,19,13.00
2017,05,25,08,20,13.10
2017,05,25,08,21,13.10
2017,05,25,08,22,13.10
2017,05,25,08,23,13.20
2017,05,25,08,24,13.20
2017,05,25,08,25,13.20
2017,05,25,08,26,13.20
2017,05,25,08,27,13.20
2017,05,25,08,28,13.20
2017,05,25,08,29,13.10
2017,05,25,08,30,13.10
2017,05,25,08,31,13.10
2017,05,25,08,32,13.10
2017,05,25,08,33,13.10
2017,05,25,08,34,13.10
2017,05,25,08,35,13.20
2017,05,25,08,36,13.20
2017,05,25,08,37,13.30
2017,05,25,08,38,13.30
2017,05,25,08,39,13.30
2017,05,25,08,40,13.30
2017,05,25,08,41,13.30
2017,05,25,08,42,13.30
2017,05,25,08,43,13.30
2017,05,25,08,44,13.30
2017,05,25,08,45,13.20
2017,05,25,08,46,13.30
2017,05,25,08,47,13.30
2017,05,25,08,48,13.30
2017,05,25,08,49,13.30
2017,05,25,08,50,13.30
2017,05,25,08,51,13.40
2017,05,25,08,52,13.50
2017,05,25,08,53,13.50
2017,05,25,08,54,13.50
2017,05,25,08,55,13.60
2017,05,25,08,56,13.60
2017,05,25,08,57,13.70
2017,05,25,08,58,13.70
2017,05,25,08,59,13.70
2017,05,25,09,00,13.80
2017,05,25,09,01,13.90
2017,05,25,09,02,13.90
2017,05,25,09,03,13.90
2017,05,25,09,04,13.90
2017,05,25,09,05,13.90
2017,05,25,09,06,13.90
2017,05,25,09,07,14.00
2017,05,25,09,08,14.10
2017,05,25,09,09,14.10
2017,05,25,09,10,14.20
2017,05,25,09,11,14.20
2017,05,25,09,12,14.30
2017,05,25,09,13,14.30
2017,05,25,09,14,14.40
2017,05,25,09,15,14.50
2017,05,25,09,16,14.60
2017,05,25,09,17,14.60
2017,05,25,09,18,14.70
2017,05,25,09,19,14.80
2017,05,25,09,20,14.80
2017,05,25,09,21,14.90
2017,05,25,09,22,14.90
2017,05,25,09,23,15.00
2017,05,25,09,24,15.10
2017,05,25,09,25,15.10
2017,05,25,09,26,15.10
2017,05,25,09,27,15.20
2017,05,25,09,28,15.20
2017,05,25,09,29,15.30
2017,05,25,09,30,15.30
2017,05,25,09,31,15.30
2017,05,25,09,32,15.40
2017,05,25,09,33,15.50
2017,05,25,09,34,15.50
2017,05,25,09,35,15.50
2017,05,25,09,36,15.60
2017,05,25,09,37,15.60
2017,05,25,09,38,15.70
2017,05,25,09,39,15.70
2017,05,25,09,40,15.80
2017,05,25,09,41,15.80
2017,05,25,09,42,15.80
2017,05,25,09,43,15.80
2017,05,25,09,44,15.80
2017,05,25,09,45,15.80
2017,05,25,09,46,15.80
2017,05,25,09,47,15.90
2017,05,25,09,48,15.90
2017,05,25,09,49,16.00
2017,05,25,09,50,16.10
2017,05,25,09,51,16.10
2017,05,25,09,52,16.20
2017,05,25,09,53,16.30
2017,05,25,09,54,16.40
2017,05,25,09,55,16.40
2017,05,25,09,56,16.30
2017,05,25,09,57,16.30
2017,05,25,09,58,16.30
2017,05,25,09,59,16.40
2017,05,25,10,00,16.40
2017,05,25,10,01,16.40
2017,05,25,10,02,16.40
2017,05,25,10,03,16.30
2017,05,25,10,04,16.20
2017,05,25,10,05,16.20
2017,05,25,10,06,16.20
2017,05,25,10,07,16.20
2017,05,25,10,08,16.20
2017,05,25,10,09,16.30
2017,05,25,10,10,16.30
2017,05,25,10,11,16.30
2017,05,25,10,12,16.40
2017,05,25,10,13,16.40
2017,05,25,10,14,16.40
2017,05,25,10,15,16.60
2017,05,25,10,16,16.60
2017,05,25,10,17,16.70
2017,05,25,10,18,16.70
2017,05,25,10,19,16.70
2017,05,25,10,20,16.70
2017,05,25,10,21,16.70
2017,05,25,10,22,16.70
2017,05,25,10,23,16.60
2017,05,25,10,24,16.40
2017,05,25,10,25,16.40
2017,05,25,10,26,16.40
2017,05,25,10,27,16.40
2017,05,25,10,28,16.40
2017,05,25,10,29,16.40
2017,05,25,10,30,16.40
2017,05,25,10,31,16.40
2017,05,25,10,32,16.40
2017,05,25,10,33,16.40
2017,05,25,10,34,16.40
2017,05,25,10,35,16.50
2017,05,25,10,36,16.70
2017,05,25,10,37,16.80
2017,05,25,10,38,16.80
2017,05,25,10,39,16.90
2017,05,25,10,40,16.80
2017,05,25,10,41,16.70
2017,05,25,10,42,16.70
2017,05,25,10,43,16.70
2017,05,25,10,44,16.70
2017,05,25,10,45,16.60
2017,05,25,10,46,16.60
2017,05,25,10,47,16.60
2017,05,25,10,48,16.50
2017,05,25,10,49,16.40
2017,05,25,10,50,16.40
2017,05,25,10,51,16.10
2017,05,25,10,52,15.90
2017,05,25,10,53,15.80
2017,05,25,10,54,15.60
2017,05,25,10,55,15.50
2017,05,25,10,56,15.40
2017,05,25,10,57,15.20
2017,05,25,10,58,15.00
2017,05,25,10,59,14.70
2017,05,25,11,00,14.50
2017,05,25,11,01,14.40
2017,05,25,11,02,14.30
2017,05,25,11,03,14.20
2017,05,25,11,04,14.20
2017,05,25,11,05,14.20
2017,05,25,11,06,14.20
2017,05,25,11,07,14.20
2017,05,25,11,08,14.20
2017,05,25,11,09,14.20
2017,05,25,11,10,14.40
2017,05,25,11,11,14.40
2017,05,25,11,12,14.40
2017,05,25,11,13,14.50
2017,05,25,11,14,14.50
2017,05,25,11,15,14.50
2017,05,25,11,16,14.50
2017,05,25,11,17,14.40
2017,05,25,11,18,14.30
2017,05,25,11,19,14.30
2017,05,25,11,20,14.20
2017,05,25,11,21,14.20
2017,05,25,11,22,14.30
2017,05,25,11,23,14.40
2017,05,25,11,24,14.40
2017,05,25,11,25,14.40
2017,05,25,11,26,14.40
2017,05,25,11,27,14.50
2017,05,25,11,28,14.40
2017,05,25,11,29,14.40
2017,05,25,11,30,14.40
2017,05,25,11,31,14.40
2017,05,25,11,32,14.50
2017,05,25,11,33,14.60
2017,05,25,11,34,14.70
2017,05,25,11,35,14.90
2017,05,25,11,36,15.10
2017,05,25,11,37,15.20
2017,05,25,11,38,15.30
2017,05,25,11,39,15.30
2017,05,25,11,40,15.30
2017,05,25,11,41,15.30
2017,05,25,11,42,15.30
2017,05,25,11,43,15.30
2017,05,25,11,44,15.30
2017,05,25,11,45,15.30
2017,05,25,11,46,15.30
2017,05,25,11,47,15.60
2017,05,25,11,48,15.70
2017,05,25,11,49,15.90
2017,05,25,11,50,16.10
2017,05,25,11,51,16.40
2017,05,25,11,52,16.60
2017,05,25,11,53,16.80
2017,05,25,11,54,17.00
2017,05,25,11,55,17.10
2017,05,25,11,56,17.30
2017,05,25,11,57,17.40
2017,05,25,11,58,17.50
2017,05,25,11,59,17.60
2017,05,25,12,00,17.70
2017,05,25,12,01,17.80
2017,05,25,12,02,17.90
2017,05,25,12,03,17.90
2017,05,25,12,04,17.50
2017,05,25,12,05,17.20
2017,05,25,12,06,16.80
2017,05,25,12,07,16.40
2017,05,25,12,08,16.20
2017,05,25,12,09,16.10
2017,05,25,12,10,16.10
2017,05,25,12,11,16.10
2017,05,25,12,12,16.20
2017,05,25,12,13,16.30
2017,05,25,12,14,16.50
2017,05,25,12,15,16.80
2017,05,25,12,16,17.00
2017,05,25,12,17,17.10
2017,05,25,12,18,17.20
2017,05,25,12,19,17.20
2017,05,25,12,20,17.30
2017,05,25,12,21,17.40
2017,05,25,12,22,17.50
2017,05,25,12,23,17.50
2017,05,25,12,24,17.60
2017,05,25,12,25,17.70
2017,05,25,12,26,17.70
2017,05,25,12,27,17.80
2017,05,25,12,28,17.90
2017,05,25,12,29,17.80
2017,05,25,12,30,17.80
2017,05,25,12,31,17.90
2017,05,25,12,32,18.00
2017,05,25,12,33,18.10
2017,05,25,12,34,18.20
2017,05,25,12,35,18.10
2017,05,25,12,36,18.10
2017,05,25,12,37,17.90
2017,05,25,12,38,17.70
2017,05,25,12,39,17.50
2017,05,25,12,40,17.40
2017,05,25,12,41,17.30
2017,05,25,12,42,17.20
2017,05,25,12,43,17.10
2017,05,25,12,44,17.00
2017,05,25,12,45,16.90
2017,05,25,12,46,16.60
2017,05,25,12,47,16.30
2017,05,25,12,48,16.00
2017,05,25,12,49,15.80
2017,05,25,12,50,15.40
2017,05,25,12,51,15.10
2017,05,25,12,52,14.80
2017,05,25,12,53,14.70
2017,05,25,12,54,14.50
2017,05,25,12,55,14.40
2017,05,25,12,56,14.40
2017,05,25,12,57,14.20
2017,05,25,12,58,14.20
2017,05,25,12,59,14.00
2017,05,25,13,00,14.00
2017,05,25,13,01,14.10
2017,05,25,13,02,14.10
2017,05,25,13,03,14.10
2017,05,25,13,04,14.00
2017,05,25,13,05,14.00
2017,05,25,13,06,14.10
2017,05,25,13,07,14.00
2017,05,25,13,08,13.90
2017,05,25,13,09,13.90
2017,05,25,13,10,13.80
2017,05,25,13,11,13.80
2017,05,25,13,12,13.80
2017,05,25,13,13,13.80
2017,05,25,13,14,13.80
2017,05,25,13,15,13.80
2017,05,25,13,16,13.80
2017,05,25,13,17,13.80
2017,05,25,13,18,13.70
2017,05,25,13,19,13.70
2017,05,25,13,20,13.70
2017,05,25,13,21,13.80
2017,05,25,13,22,13.90
2017,05,25,13,23,13.90
2017,05,25,13,24,13.90
2017,05,25,13,25,13.90
2017,05,25,13,26,14.00
2017,05,25,13,27,14.10
2017,05,25,13,28,14.10
2017,05,25,13,29,14.10
2017,05,25,13,30,14.00
2017,05,25,13,31,14.00
2017,05,25,13,32,14.00
2017,05,25,13,33,14.00
2017,05,25,13,34,14.10
2017,05,25,13,35,14.20
2017,05,25,13,36,14.20
2017,05,25,13,37,14.10
2017,05,25,13,38,14.10
2017,05,25,13,39,14.20
2017,05,25,13,40,14.30
2017,05,25,13,41,14.40
2017,05,25,13,42,14.50
2017,05,25,13,43,14.60
2017,05,25,13,44,14.70
2017,05,25,13,45,14.60
2017,05,25,13,46,14.50
2017,05,25,13,47,14.50
2017,05,25,13,48,14.50
2017,05,25,13,49,14.50
2017,05,25,13,50,14.50
2017,05,25,13,51,14.50
2017,05,25,13,52,14.70
2017,05,25,13,53,14.80
2017,05,25,13,54,15.00
2017,05,25,13,55,15.00
2017,05,25,13,56,15.00
2017,05,25,13,57,15.00
2017,05,25,13,58,14.90
2017,05,25,13,59,14.80
2017,05,25,14,00,14.80
2017,05,25,14,01,14.80
2017,05,25,14,02,14.80
2017,05,25,14,03,14.80
2017,05,25,14,04,14.90
2017,05,25,14,05,15.00
2017,05,25,14,06,15.10
2017,05,25,14,07,15.10
2017,05,25,14,08,15.20
2017,05,25,14,09,15.20
2017,05,25,14,10,15.20
2017,05,25,14,11,15.10
2017,05,25,14,12,15.10
2017,05,25,14,13,15.10
2017,05,25,14,14,15.10
2017,05,25,14,15,15.20
2017,05,25,14,16,15.20
2017,05,25,14,17,15.30
2017,05,25,14,18,15.40
2017,05,25,14,19,15.50
2017,05,25,14,20,15.60
2017,05,25,14,21,15.70
2017,05,25,14,22,15.80
2017,05,25,14,23,15.70
2017,05,25,14,24,15.70
2017,05,25,14,25,15.80
2017,05,25,14,26,15.80
2017,05,25,14,27,15.80
2017,05,25,14,28,15.90
2017,05,25,14,29,16.00
2017,05,25,14,30,16.10
2017,05,25,14,31,16.00
2017,05,25,14,32,15.90
2017,05,25,14,33,15.90
2017,05,25,14,34,15.90
2017,05,25,14,35,16.00
2017,05,25,14,36,16.10
2017,05,25,14,37,16.10
2017,05,25,14,38,16.10
2017,05,25,14,39,16.10
2017,05,25,14,40,16.10
2017,05,25,14,41,16.10
2017,05,25,14,42,16.00
2017,05,25,14,43,15.90
2017,05,25,14,44,15.80
2017,05,25,14,45,15.80
2017,05,25,14,46,15.90
2017,05,25,14,47,15.90
2017,05,25,14,48,16.00
2017,05,25,14,49,16.10
2017,05,25,14,50,16.10
2017,05,25,14,51,16.10
2017,05,25,14,52,16.20
2017,05,25,14,53,16.30
2017,05,25,14,54,16.30
2017,05,25,14,55,16.30
2017,05,25,14,56,16.30
2017,05,25,14,57,16.20
2017,05,25,14,58,16.20
2017,05,25,14,59,16.20
2017,05,25,15,00,16.30
2017,05,25,15,01,16.40
2017,05,25,15,02,16.40
2017,05,25,15,03,16.40
2017,05,25,15,04,16.30
2017,05,25,15,05,16.30
2017,05,25,15,06,16.20
2017,05,25,15,07,16.20
2017,05,25,15,08,16.20
2017,05,25,15,09,16.40
2017,05,25,15,10,16.50
2017,05,25,15,11,16.60
2017,05,25,15,12,16.60
2017,05,25,15,13,16.60
2017,05,25,15,14,16.60
2017,05,25,15,15,16.60
2017,05,25,15,16,16.70
2017,05,25,15,17,16.70
2017,05,25,15,18,16.70
2017,05,25,15,19,16.80
2017,05,25,15,20,16.90
2017,05,25,15,21,16.90
2017,05,25,15,22,16.80
2017,05,25,15,23,16.70
2017,05,25,15,24,16.80
2017,05,25,15,25,16.90
2017,05,25,15,26,17.00
2017,05,25,15,27,17.00
2017,05,25,15,28,17.10
2017,05,25,15,29,17.20
2017,05,25,15,30,17.20
2017,05,25,15,31,17.30
2017,05,25,15,32,17.30
2017,05,25,15,33,17.30
2017,05,25,15,34,17.20
2017,05,25,15,35,17.20
2017,05,25,15,36,17.10
2017,05,25,15,37,17.20
2017,05,25,15,38,17.30
2017,05,25,15,39,17.20
2017,05,25,15,40,17.20
2017,05,25,15,41,17.20
2017,05,25,15,42,17.20
2017,05,25,15,43,17.10
2017,05,25,15,44,17.10
2017,05,25,15,45,17.00
2017,05,25,15,46,16.90
2017,05,25,15,47,16.90
2017,05,25,15,48,16.70
2017,05,25,15,49,16.70
2017,05,25,15,50,16.70
2017,05,25,15,51,16.70
2017,05,25,15,52,16.70
2017,05,25,15,53,16.80
2017,05,25,15,54,16.90
2017,05,25,15,55,16.90
2017,05,25,15,56,16.80
2017,05,25,15,57,16.80
2017,05,25,15,58,16.70
2017,05,25,15,59,16.70
2017,05,25,16,00,16.70
2017,05,25,16,01,16.60
2017,05,25,16,02,16.60
2017,05,25,16,03,16.60
2017,05,25,16,04,16.60
2017,05,25,16,05,16.60
2017,05,25,16,06,16.60
2017,05,25,16,07,16.70
2017,05,25,16,08,16.70
2017,05,25,16,09,16.70
2017,05,25,16,10,16.70
2017,05,25,16,11,16.70
2017,05,25,16,12,16.90
2017,05,25,16,13,17.00
2017,05,25,16,14,17.00
2017,05,25,16,15,16.90
2017,05,25,16,16,17.00
2017,05,25,16,17,17.00
2017,05,25,16,18,17.10
2017,05,25,16,19,17.00
2017,05,25,16,20,17.00
2017,05,25,16,21,16.90
2017,05,25,16,22,16.90
2017,05,25,16,23,16.70
2017,05,25,16,24,16.80
2017,05,25,16,25,16.80
2017,05,25,16,26,16.80
2017,05,25,16,27,16.90
2017,05,25,16,28,16.90
2017,05,25,16,29,17.00
2017,05,25,16,30,17.00
2017,05,25,16,31,17.10
2017,05,25,16,32,17.10
2017,05,25,16,33,17.00
2017,05,25,16,34,17.00
2017,05,25,16,35,17.00
2017,05,25,16,36,17.00
2017,05,25,16,37,17.00
2017,05,25,16,38,17.00
2017,05,25,16,39,17.10
2017,05,25,16,40,17.00
2017,05,25,16,41,16.90
2017,05,25,16,42,16.90
2017,05,25,16,43,16.80
2017,05,25,16,44,16.80
2017,05,25,16,45,16.90
2017,05,25,16,46,17.00
2017,05,25,16,47,16.90
2017,05,25,16,48,16.80
2017,05,25,16,49,16.80
2017,05,25,16,50,16.80
2017,05,25,16,51,16.80
2017,05,25,16,52,16.80
2017,05,25,16,53,16.80
2017,05,25,16,54,16.70
2017,05,25,16,55,16.70
2017,05,25,16,56,16.70
2017,05,25,16,57,16.60
2017,05,25,16,58,16.70
2017,05,25,16,59,16.70
2017,05,25,17,00,16.70
2017,05,25,17,01,16.70
2017,05,25,17,02,16.70
2017,05,25,17,03,16.60
2017,05,25,17,04,16.70
2017,05,25,17,05,16.70
2017,05,25,17,06,16.70
2017,05,25,17,07,16.70
2017,05,25,17,08,16.70
2017,05,25,17,09,16.60
2017,05,25,17,10,16.60
2017,05,25,17,11,16.70
2017,05,25,17,12,16.70
2017,05,25,17,13,16.70
2017,05,25,17,14,16.80
2017,05,25,17,15,16.80
2017,05,25,17,16,16.80
2017,05,25,17,17,16.70
2017,05,25,17,18,16.70
2017,05,25,17,19,16.80
2017,05,25,17,20,16.80
2017,05,25,17,21,16.90
2017,05,25,17,22,16.90
2017,05,25,17,23,17.00
2017,05,25,17,24,17.00
2017,05,25,17,25,17.10
2017,05,25,17,26,17.20
2017,05,25,17,27,17.20
2017,05,25,17,28,17.10
2017,05,25,17,29,17.10
2017,05,25,17,30,17.20
2017,05,25,17,31,17.30
2017,05,25,17,32,17.30
2017,05,25,17,33,17.30
2017,05,25,17,34,17.30
2017,05,25,17,35,17.20
2017,05,25,17,36,17.20
2017,05,25,17,37,17.20
2017,05,25,17,38,17.20